Regional Weather Roundup
Issued by NWS

Home | Current Version | Previous Version | Graphics & Text | Print | Product List | Glossary On
Versions: 1 2 3 4 5 6 7 8 9 10 11 12 13 14 15 16 17 18 19 20 21 22 23 24 25 26 27 28 29 30 31 32 33 34 35 36 37 38 39 40 41 42 43 44 45 46 47 48 49 50
000
ASUS45 KSLC 081010
RWRUT

UTAH REGIONAL WEATHER ROUNDUP
NATIONAL WEATHER SERVICE SALT LAKE CITY UT
300 AM MST MON FEB 08 2016

UTZ001>011-023>025-081100-

NORTHERN UTAH

CITY           SKY/WX    TMP DP  RH WIND       PRES   REMARKS
BRIGHAM CITY     N/A     14  11  87 CALM      30.68S VSB 1/4
HILL AFB       CLEAR     25  17  69 SE8       30.64S WCI  16
LOGAN          FOG       10   8  92 CALM      30.68R VSB<1/4
OGDEN          CLEAR     24  19  81 S8        30.65S WCI  15
PROVO AIRPORT  PTCLDY    12  10  92 CALM      30.67S
SALT LAKE CITY PTCLDY    26  22  84 SE6       30.66S WCI  19
VERNAL         CLOUDY     9   4  80 S6        30.57F WCI  -1
WENDOVER       PTCLDY    25  19  80 CALM      30.67R
HEBER CITY     PTCLDY     5   0  78 CALM      30.65S HAZE
WEST JORDAN    CLEAR     25  21  86 SW3       30.65F

$$

UTZ012>022-026-027-081100-

SOUTHERN/CENTRAL UTAH

CITY           SKY/WX    TMP DP  RH WIND       PRES   REMARKS
BLANDING       CLEAR     30  13  50 CALM      30.53R
BRYCE CANYON   PTCLDY    22  10  60 NW15      30.55S WCI   9
CEDAR CITY     PTCLDY    14  10  84 SE5       30.58R WCI   6
DELTA          CLOUDY     5   2  89 CALM      30.67R VSB<1/4
HANKSVILLE     MOCLDY    12  10  92 CALM      30.59F
MILFORD        MOCLDY    10  32 100 N5        30.62R WCI   2
MOAB/CYNLANDS  MOCLDY    10   8  92 CALM      30.56R
PRICE          PTCLDY    19  13  77 CALM      30.51R
ST GEORGE      MOSUNNY   39  21  48 N5        30.53S
KANAB          CLEAR     32  23  69 N5        30.54R WCI  27

$$

REGIONAL REPORTS     COLORADO/ARIZONA

CITY           SKY/WX    TMP DP  RH WIND       PRES   REMARKS
CRAIG, CO      CLOUDY    -3  -8  79 CALM      30.55F
GRAND JUNCTION CLOUDY    14  12  92 E3        30.57R
RIFLE          CLOUDY    13   8  81 CALM      30.58S
MONTROSE       CLOUDY    15   9  76 S8        30.58R WCI   4
CORTEZ         CLOUDY    15  11  83 NE6       30.45R WCI   6
PAGE, AZ       PTCLDY    31  23  72 SE3       30.52R
GRAND CANYON   PTCLDY    39  15  37 NE10      30.47S WCI  32
KINGMAN        CLEAR     41  22  46 NE10      30.39R
FLAGSTAFF      CLEAR     36  13  38 NE21G29   30.42F WCI  25

$$

REGIONAL REPORTS    NEVADA/IDAHO/WYOMING

CITY           SKY/WX    TMP DP  RH WIND       PRES   REMARKS
LAS VEGAS, NV  CLEAR     54  22  28 NE10      30.40R
ELY            PTCLDY     8   5  87 S12       30.64R WCI  -7
ELKO           MOCLDY    11   6  81 E5        30.67S WCI   3
POCATELLO, ID  CLOUDY    24  22  91 CALM      30.67F FOG
BURLEY         PTCLDY    25  23  92 CALM      30.64F
EVANSTON, WY   CLOUDY    22  14  71 S10       30.59F WCI  11
ROCK SPRINGS   CLOUDY    25  16  68 SW24      30.48F WCI   9

$$



USA.gov is the U.S. government's official web portal to all federal, state and local government web resources and services.